TimeEDT,TemperatureF,Dew PointF,Humidity,Sea Level PressureIn,VisibilityMPH,Wind Direction,Wind SpeedMPH,Gust SpeedMPH,PrecipitationIn,Events,Conditions,WindDirDegrees,DateUTC
12:54 AM,39.0,30.9,73,30.60,10.0,NE,4.6,-,N/A,,Overcast,50,2014-04-18 04:54:00
1:54 AM,39.0,30.9,73,30.57,10.0,NE,6.9,-,N/A,,Overcast,50,2014-04-18 05:54:00
2:54 AM,39.0,30.9,73,30.53,10.0,NE,8.1,-,N/A,,Overcast,50,2014-04-18 06:54:00
3:54 AM,39.0,32.0,76,30.50,10.0,ENE,9.2,-,N/A,,Overcast,60,2014-04-18 07:54:00
4:54 AM,39.0,32.0,76,30.49,10.0,NE,5.8,-,N/A,,Overcast,50,2014-04-18 08:54:00
5:54 AM,39.0,30.9,73,30.49,10.0,NE,8.1,-,N/A,,Overcast,40,2014-04-18 09:54:00
6:54 AM,39.0,32.0,76,30.53,10.0,ENE,5.8,-,N/A,,Overcast,70,2014-04-18 10:54:00
7:54 AM,39.0,32.0,76,30.53,10.0,ENE,8.1,-,N/A,,Overcast,70,2014-04-18 11:54:00
8:54 AM,39.9,32.0,73,30.51,10.0,NE,9.2,-,N/A,,Overcast,50,2014-04-18 12:54:00
9:54 AM,43.0,32.0,65,30.49,10.0,NE,10.4,-,N/A,,Overcast,50,2014-04-18 13:54:00
10:54 AM,46.0,33.1,61,30.49,10.0,Variable,5.8,-,N/A,,Mostly Cloudy,0,2014-04-18 14:54:00
11:25 AM,46.0,33.1,61,30.47,10.0,North,6.9,-,N/A,,Mostly Cloudy,10,2014-04-18 15:25:00
11:54 AM,48.0,35.1,61,30.47,10.0,NE,5.8,-,N/A,,Partly Cloudy,50,2014-04-18 15:54:00
12:54 PM,50.0,35.1,57,30.45,10.0,North,4.6,-,N/A,,Clear,10,2014-04-18 16:54:00
1:54 PM,52.0,34.0,50,30.42,10.0,Variable,3.5,-,N/A,,Clear,0,2014-04-18 17:54:00
2:54 PM,53.1,37.0,55,30.39,10.0,Variable,4.6,-,N/A,,Clear,0,2014-04-18 18:54:00
3:54 PM,52.0,37.0,57,30.36,10.0,Variable,4.6,-,N/A,,Clear,0,2014-04-18 19:54:00
4:54 PM,52.0,37.9,59,30.35,10.0,WSW,9.2,-,0.00,Rain,Light Rain,240,2014-04-18 20:54:00
5:54 PM,48.9,37.9,66,30.34,10.0,SW,8.1,-,0.00,,Clear,220,2014-04-18 21:54:00
6:54 PM,46.9,37.9,71,30.33,10.0,Variable,3.5,-,N/A,,Clear,0,2014-04-18 22:54:00
7:54 PM,45.0,37.0,74,30.32,10.0,SSE,5.8,-,N/A,,Clear,150,2014-04-18 23:54:00
8:54 PM,43.0,36.0,76,30.32,10.0,ESE,4.6,-,N/A,,Clear,120,2014-04-19 00:54:00
9:54 PM,42.1,36.0,79,30.32,10.0,SE,4.6,-,N/A,,Clear,140,2014-04-19 01:54:00
10:54 PM,41.0,36.0,82,30.32,10.0,Calm,Calm,-,N/A,,Clear,0,2014-04-19 02:54:00
11:54 PM,39.9,36.0,86,30.29,10.0,Calm,Calm,-,N/A,,Clear,0,2014-04-19 03:54:00